Regional Weather Roundup
Issued by NWS Charleston, SC

Home | Current Version | Previous Version | Text Only | Print | Product List | Glossary On
Versions: 1 2 3 4 5 6 7 8 9 10 11 12 13 14 15 16 17 18 19 20 21 22 23 24 25 26 27 28 29 30 31 32 33 34 35 36 37 38 39 40 41 42 43 44 45 46 47 48 49 50
000
ASUS42 KCHS 040428
RWRCHS

REGIONAL WEATHER ROUNDUP
NATIONAL WEATHER SERVICE CHARLESTON SC
1200 AM EDT WED MAY 04 2016

NOTE: "FAIR" INDICATES FEW OR NO CLOUDS BELOW 12,000 FEET WITH NO
SIGNIFICANT WEATHER AND/OR OBSTRUCTIONS TO VISIBILITY.

NOT ALL STATIONS ARE QUALITY CONTROLLED. USE DATA WITH CAUTION...
ESPECIALLY DEWPOINT OBSERVATIONS.

SCZ027-030-031-034>040-042>050-040500-
...SOUTHEAST SOUTH CAROLINA...

CITY           SKY/WX    TMP DP  RH WIND       PRES   REMARKS
N CHARLESTON   CLOUDY    67  63  87 W5        29.79F
WATERFRONT PRK   N/A     69  66  90 CALM      29.79F
MOUNT PLEASANT FAIR      64  64 100 CALM      29.79F FOG
JOHNS ISLAND   FAIR      68  66  94 SW6       29.80F
PINOPOLIS        N/A     72  64  78 S7        29.74R
MONCKS CORNER  MOCLDY    64  59  82 S7        29.79F
SUMMERVILLE    LGT RAIN  66  66 100 S5        29.81F
BEAUFORT MCAS  CLOUDY    68  67  96 CALM      29.80F
BEAUFORT ARPT  FAIR      68  66  94 SE3       29.79F
HILTON HEAD IS PTCLDY    68  66  94 CALM      29.81F
WALTERBORO     CLOUDY    70  68  94 CALM      29.78F
ALLENDALE      FAIR      68  66  94 CALM      29.77F

...SOUTHERN MIDLANDS AND PEE DEE...

CITY           SKY/WX    TMP DP  RH WIND       PRES   REMARKS
GEORGETOWN     FAIR      64  61  88 SW7       29.79F
KINGSTREE      FAIR      72  63  73 S8        29.77F
ORANGEBURG     PTCLDY    69  66  90 S7        29.79F
BARNWELL       FAIR      70  70 100 CALM      29.79F
AIKEN          MOCLDY    66  64  94 SW5       29.82F
MANNING        FAIR      72  64  78 S5        29.77F
COLUMBIA       PTCLDY    71  66  84 W6        29.76F
SUMTER         MOCLDY    70  65  84 SW7       29.75S
FLORENCE       MOCLDY    73  66  78 SW9       29.76F
MYRTLE BEACH   MOCLDY    73  63  68 SW18G26   29.80S
N MYRTLE BEACH CLOUDY    73  70  90 SW13      29.76S

$$

GAZ063-065-086>088-099>101-113>116-118-119-134>141-150-040500-
...SOUTHEAST GEORGIA...

CITY           SKY/WX    TMP DP  RH WIND       PRES   REMARKS
SAVANNAH ARPT  MOCLDY    68  65  90 CALM      29.82F
HUNTER AAF     CLEAR     69  69  99 CALM      29.79F
FORT STEWART   CLEAR     68  66  94 CALM      29.79F
STATESBORO     CLEAR     70  69  99 SW5       29.80S
SYLVANIA       PTCLDY    67  67  98 CALM      29.80S
CLAXTON        FAIR      67  67 100 CALM      29.80F

...CSRA...CENTRAL AND FAR SOUTHEAST GEORGIA...

CITY           SKY/WX    TMP DP  RH WIND       PRES   REMARKS
THOMSON        CLOUDY    68  67  98 CALM      29.84F
AUGUSTA-BUSH   CLOUDY    70  66  87 SW8       29.78F
AUGUSTA-DANIEL CLOUDY    71  65  81 CALM      29.80F
SWAINSBORO     FAIR      68  64  88 CALM      29.81F
VIDALIA        CLOUDY    68  64  88 W3        29.80F
EASTMAN        CLOUDY    68  68 100 W5        29.86S
HAZLEHURST     FAIR      69  69 100 SW3       29.82S
ALMA           CLOUDY    67  66  97 SW3       29.84S
WAYCROSS       LGT RAIN  69  67  94 W6        29.83F
JESUP          FAIR      72  68  88 CALM      29.82F
BAXLEY         FAIR      68  68 100 SW3       29.82F
BRUNSWICK      PTCLDY    77  70  78 W5        29.84S
SAINT SIMONS   CLOUDY    75  66  73 W3        29.83S

$$

SCZ027-028-034-036>038-045-046-048>050-GAZ119-141-040500-
...LAKE AND SUPPLEMENTAL COASTAL OBSERVATIONS...

STATION/POSITION TIME  TEMP    WIND        PRES    WAVE   SWELL
                       AIR SEA DIR/SP/G            HT/PER HT/PER/DIR
                 (UTC) (F)     (DEG/KT/KT) (MB)    (FT/S) (FT/S/D)
WINYAH BAY       0300   74     220/  8     1008.0S
LAKE MURRAY      0300   72     250/  7/  8 1007.8S
ACE BASIN NERRS  0300   65        CALM     1010.0F
FORT PULASKI     0400   69 75  300/  2/  3 1009.9F
SAPELO ISLAND    0400   74     230/  6     1010.0S

$$

ANZ835-935-AMZ111-154-330-350-352-354-370-450-454-472-040500-
...C-MAN AND BUOY OBSERVATIONS...

STATION/POSITION TIME  TEMP    WIND        PRES    WAVE   SWELL
                       AIR SEA DIR/SP/G            HT/PER HT/PER/DIR
                 (UTC) (F)     (DEG/KT/KT) (MB)    (FT/S) (FT/S/D)
BUOY 41004       0350   73 74  330/ 16/ 21 1008.9F   5/ 4   2/ 8
BUOY 41008       NOT AVBL
FOLLY BEACH CMAN 0400   69     220/  5/  5 1008.9F
CAPERS NEARSHORE 0308   68 71  240/ 19/ 31 1010.5R
FRIPP NEARSHORE  0408   72 75  220/  2/  6 1008.8F


STATION/POSITION TIME  TEMP    WIND        PRES    WAVE   SWELL
                       AIR SEA DIR/SP/G            HT/PER HT/PER/DIR
                 (UTC) (F)     (DEG/KT/KT) (MB)    (FT/S) (FT/S/D)
5E ST. MARYS GA  0321      73                N/A     2/ 7
FRYING PAN BUOY  0400   75 73  210/ 17/ 21 1008.1F
BUOY 41025       0350   72 72  250/ 12/ 14 1007.6R   4/ 5   2/180/ 6
CAPE LOOKOUT NC  0400   70     170/  6/  7 1006.9F
BUOY 41002       0350   74 74  170/ 12/ 16 1011.6F   5/ 7   3/210/ 7
BUOY 41010       0320   78 79  180/ 12/ 14 1012.6F
ST AUGUSTINE FL  0400   75 72  220/  7/ 10 1011.4F


$$




USA.gov is the U.S. government's official web portal to all federal, state and local government web resources and services.